Location: Oberwangen
(47.4286°N, 8.9679°E)
Time: 09:24:36
(UTC+00:00)

Cosmos 1943 Rocket - Pass Details

Date: 20 June 2021
Orbit: 813 x 843 km, 71.0° (Epoch: 04 August)

Event Time Altitude Azimuth Distance (km) Brightness Sun altitude
Rises 21:34:42 0° 338° (NNW) 3,347 7.2 -14.8°
Reaches altitude 10° 21:37:42 10° 354° (N) 2,412 5.7 -15.1°
Maximum altitude 21:41:54 22° 44° (NE) 1,732 4.1 -15.4°
Drops below altitude 10° 21:46:06 10° 94° (E) 2,409 4.3 -15.7°
Enters shadow 21:47:15 - 101° (ESE) 2,750 4.5 -15.7°
